Regional Weather Roundup
Issued by NWS

Home | Current Version | Previous Version | Graphics & Text | Print | Product List | Glossary Off
Versions: 1 2 3 4 5 6 7 8 9 10 11 12 13 14 15 16 17 18 19 20 21 22 23 24 25 26 27 28 29 30 31 32 33 34 35 36 37 38 39 40 41 42 43 44 45 46 47 48 49 50

400
ASUS43 KTOP 282008
RWRKS

WEATHER ROUNDUP FOR KANSAS
NATIONAL WEATHER SERVICE GOODLAND KS
300 PM CDT SUN AUG 28 2016

NOTE:  "FAIR" INDICATES FEW OR NO CLOUDS BELOW 12,000 FEET WITH NO
SIGNIFICANT WEATHER AND/OR OBSTRUCTIONS TO VISIBILITY.

KSZ001>006-013>018-027>032-041>047-282100-
NORTHWEST KANSAS

CITY           SKY/WX    TMP DP  RH WIND       PRES   REMARKS
GOODLAND       CLOUDY    82  57  42 SE13G23   30.12S
HAYS           CLOUDY    81  61  50 SW6       30.08F
HILL CITY      PTSUNNY   81  64  56 VRB3      30.09F
RUSSELL        CLOUDY    83  66  56 S8        30.07F
$$

KSZ061>065-074>080-084>089-282100-
SOUTHWEST KANSAS

CITY           SKY/WX    TMP DP  RH WIND       PRES   REMARKS
DODGE CITY     MOSUNNY   83  63  50 S9        30.10F
ELKHART          N/A     84  63  49 SE10        N/A
GARDEN CITY    SUNNY     84  61  45 S8G17     30.09F
GREAT BEND     CLOUDY    84  63  48 S8        30.07F
LIBERAL        SUNNY     84  61  45 S12G17    30.11F
PRATT          LGT RAIN  81  64  57 SE3       30.09F
$$

KSZ066>073-081>083-090>101-282100-
SOUTHEAST KANSAS

CITY           SKY/WX    TMP DP  RH WIND       PRES   REMARKS
CHANUTE        CLOUDY    87  72  60 SE9       30.08F
COFFEYVILLE    CLOUDY    86  70  58 E14       30.06F
HUTCHINSON     PTSUNNY   88  70  55 SE12      30.07F
MEDICINE LODGE   N/A     78  70  76 W6        30.05F
NEWTON         MOSUNNY   88  72  58 S10       30.09F
PARSONS        MOSUNNY   87  73  62 CALM      30.09F
WICHITA INTL   PTSUNNY   89  71  55 SE10      30.07F HX  95
WICHITA JABRA  SUNNY     86  70  58 S10       30.08F
WICHITA MCCONL MOSUNNY   89  71  54 SE13      30.07F
WINFIELD       MOSUNNY   81  71  71 SE10      30.09F
$$

KSZ007>012-019>026-033>040-048>060-102>105-282100-
NORTHEAST KANSAS

CITY           SKY/WX    TMP DP  RH WIND       PRES   REMARKS
CONCORDIA      MOSUNNY   90  68  48 S15       30.06F
EMPORIA        MOSUNNY   87  69  54 SE7       30.08F
LAWRENCE       MOSUNNY   90  72  55 SE10      30.07F HX  97
MANHATTAN      SUNNY     90  71  53 S7        30.06F HX  96
MARYSVILLE     MOSUNNY   90  70  51 S13       30.07F HX  95
OLATHE IND     MOSUNNY   88  70  55 SE9       30.10F
OLATHE EXE     MOSUNNY   86  71  60 SE9       30.10F
SALINA         MOSUNNY   90  68  48 SE13      30.07F
TOPEKA BILLARD MOSUNNY   89  72  56 SE12      30.07F HX  96
TOPEKA FORBES  MOSUNNY   89  70  53 SE8       30.08F
$$




USA.gov is the U.S. government's official web portal to all federal, state and local government web resources and services.